^^
Your Local Weather - Clay, NY Station Historical Data
Daily Summary for January 5, 2017 Units:  English    Metric   Both
« Previous Day
Next Day »
Daily Weekly Monthly Yearly Custom
  High: Low: Average:
Temperature: 25.0 °F 19.8 °F 21.7 °F
Dew Point: 18.4 °F 4.5 °F 11 °F
Humidity: 88% 50% 64%
Wind Speed: 7.0mph 0.0mph 3.6mph
Wind Gust: 15.0mph - -
Wind- - WSW
Pressure: 29.91 in 29.68 in -
Precipitation: 0.00 in    
Historical Graphs
 
 
Tabular Data for January 5, 2017
Time Temperature Dew Point Pressure Wind Wind Speed Wind Gust Humidity Rainfall Rate (Hourly) solar
00:04 20.5 °F 5.6 °F 29.68 in WNW 5.0 mph 9.0 mph 52% 0.00 in 0 W/m2
00:10 20.4 °F 5.5 °F 29.68 in West 6.0 mph 6.0 mph 52% 0.00 in 0 W/m2
00:16 20.3 °F 5.0 °F 29.68 in WNW 6.0 mph 6.0 mph 51% 0.00 in 0 W/m2
00:22 20.3 °F 4.6 °F 29.68 in West 6.0 mph 6.0 mph 50% 0.00 in 0 W/m2
00:28 20.2 °F 4.5 °F 29.68 in SW 5.0 mph 7.0 mph 50% 0.00 in 0 W/m2
00:34 20.3 °F 4.6 °F 29.68 in SW 6.0 mph 12.0 mph 50% 0.00 in 0 W/m2
00:40 20.3 °F 4.6 °F 29.68 in WNW 7.0 mph 7.0 mph 50% 0.00 in 0 W/m2
00:46 20.4 °F 4.7 °F 29.68 in SSW 7.0 mph 14.0 mph 50% 0.00 in 0 W/m2
00:52 20.3 °F 4.6 °F 29.68 in West 7.0 mph 7.0 mph 50% 0.00 in 0 W/m2
00:58 20.2 °F 4.9 °F 29.68 in West 5.0 mph 7.0 mph 51% 0.00 in 0 W/m2
01:04 20.3 °F 5.0 °F 29.68 in WNW 5.0 mph 9.0 mph 51% 0.00 in 0 W/m2
01:10 20.3 °F 4.6 °F 29.68 in West 6.0 mph 6.0 mph 50% 0.00 in 0 W/m2
01:16 20.3 °F 4.6 °F 29.68 in NW 6.0 mph 6.0 mph 50% 0.00 in 0 W/m2
01:22 20.3 °F 5.0 °F 29.68 in WSW 4.0 mph 5.0 mph 51% 0.00 in 0 W/m2
01:28 20.3 °F 4.6 °F 29.68 in SW 5.0 mph 13.0 mph 50% 0.00 in 0 W/m2
01:34 20.4 °F 5.1 °F 29.68 in WSW 6.0 mph 6.0 mph 51% 0.00 in 0 W/m2
01:40 20.4 °F 5.5 °F 29.68 in West 5.0 mph 5.0 mph 52% 0.00 in 0 W/m2
01:46 20.4 °F 5.1 °F 29.68 in SSW 5.0 mph 6.0 mph 51% 0.00 in 0 W/m2
01:52 20.4 °F 5.1 °F 29.69 in WNW 6.0 mph 6.0 mph 51% 0.00 in 0 W/m2
01:58 20.4 °F 5.1 °F 29.69 in West 5.0 mph 6.0 mph 51% 0.00 in 0 W/m2
02:04 20.5 °F 5.2 °F 29.69 in WSW 6.0 mph 6.0 mph 51% 0.00 in 0 W/m2
02:10 20.5 °F 5.2 °F 29.70 in NW 7.0 mph 7.0 mph 51% 0.00 in 0 W/m2
02:16 20.5 °F 5.2 °F 29.70 in West 7.0 mph 12.0 mph 51% 0.00 in 0 W/m2
02:22 20.5 °F 5.6 °F 29.70 in South 7.0 mph 8.0 mph 52% 0.00 in 0 W/m2
02:28 20.5 °F 6.1 °F 29.71 in WSW 7.0 mph 8.0 mph 53% 0.00 in 0 W/m2
02:34 20.4 °F 6.0 °F 29.71 in West 7.0 mph 10.0 mph 53% 0.00 in 0 W/m2
02:40 20.4 °F 6.4 °F 29.71 in WSW 6.0 mph 6.0 mph 54% 0.00 in 0 W/m2
02:46 20.3 °F 6.7 °F 29.72 in WSW 5.0 mph 8.0 mph 55% 0.00 in 0 W/m2
02:52 20.4 °F 6.4 °F 29.73 in WSW 6.0 mph 6.0 mph 54% 0.00 in 0 W/m2
02:58 20.4 °F 6.4 °F 29.72 in WSW 6.0 mph 6.0 mph 54% 0.00 in 0 W/m2
03:04 20.5 °F 6.9 °F 29.73 in WSW 6.0 mph 6.0 mph 55% 0.00 in 0 W/m2
03:10 20.5 °F 6.5 °F 29.73 in West 6.0 mph 7.0 mph 54% 0.00 in 0 W/m2
03:16 20.6 °F 6.6 °F 29.73 in SW 7.0 mph 13.0 mph 54% 0.00 in 0 W/m2
03:22 20.7 °F 7.1 °F 29.73 in SW 6.0 mph 7.0 mph 55% 0.00 in 0 W/m2
03:34 20.7 °F 7.1 °F 29.74 in WSW 6.0 mph 9.0 mph 55% 0.00 in 0 W/m2
03:40 20.7 °F 7.5 °F 29.73 in WSW 6.0 mph 6.0 mph 56% 0.00 in 0 W/m2
03:46 20.8 °F 7.2 °F 29.73 in WSW 5.0 mph 9.0 mph 55% 0.00 in 0 W/m2
03:52 20.9 °F 7.2 °F 29.74 in WNW 6.0 mph 9.0 mph 55% 0.00 in 0 W/m2
03:58 20.9 °F 7.2 °F 29.74 in WSW 6.0 mph 9.0 mph 55% 0.00 in 0 W/m2
04:04 20.9 °F 7.2 °F 29.74 in WNW 6.0 mph 10.0 mph 55% 0.00 in 0 W/m2
04:10 21.0 °F 7.3 °F 29.74 in SW 5.0 mph 5.0 mph 55% 0.00 in 0 W/m2
04:16 20.9 °F 7.6 °F 29.75 in WSW 6.0 mph 11.0 mph 56% 0.00 in 0 W/m2
04:22 20.9 °F 7.6 °F 29.75 in WNW 7.0 mph 7.0 mph 56% 0.00 in 0 W/m2
04:28 20.9 °F 7.2 °F 29.75 in SW 5.0 mph 7.0 mph 55% 0.00 in 0 W/m2
04:34 21.0 °F 7.3 °F 29.75 in WSW 5.0 mph 7.0 mph 55% 0.00 in 0 W/m2
04:40 21.0 °F 7.3 °F 29.75 in West 5.0 mph 5.0 mph 55% 0.00 in 0 W/m2
04:46 21.0 °F 7.3 °F 29.75 in WSW 6.0 mph 7.0 mph 55% 0.00 in 0 W/m2
04:52 21.1 °F 7.0 °F 29.75 in West 6.0 mph 6.0 mph 54% 0.00 in 0 W/m2
04:58 21.1 °F 7.0 °F 29.76 in West 6.0 mph 6.0 mph 54% 0.00 in 0 W/m2
05:04 21.1 °F 7.0 °F 29.76 in West 6.0 mph 14.0 mph 54% 0.00 in 0 W/m2
05:10 21.1 °F 7.4 °F 29.76 in NW 6.0 mph 6.0 mph 55% 0.00 in 0 W/m2
05:16 21.1 °F 7.0 °F 29.76 in WSW 6.0 mph 15.0 mph 54% 0.00 in 0 W/m2
05:22 21.1 °F 7.0 °F 29.76 in WSW 6.0 mph 6.0 mph 54% 0.00 in 0 W/m2
05:28 21.1 °F 7.0 °F 29.76 in West 6.0 mph 10.0 mph 54% 0.00 in 0 W/m2
05:40 21.1 °F 7.0 °F 29.76 in WSW 6.0 mph 6.0 mph 54% 0.00 in 0 W/m2
05:46 21.0 °F 6.9 °F 29.76 in South 6.0 mph 6.0 mph 54% 0.00 in 0 W/m2
05:52 20.9 °F 6.8 °F 29.76 in WSW 6.0 mph 7.0 mph 54% 0.00 in 0 W/m2
05:58 20.9 °F 6.8 °F 29.77 in West 6.0 mph 7.0 mph 54% 0.00 in 0 W/m2
06:04 20.9 °F 7.2 °F 29.77 in West 6.0 mph 7.0 mph 55% 0.00 in 0 W/m2
06:10 20.9 °F 6.8 °F 29.78 in WSW 6.0 mph 7.0 mph 54% 0.00 in 0 W/m2
06:16 21.0 °F 6.9 °F 29.78 in West 6.0 mph 11.0 mph 54% 0.00 in 0 W/m2
06:22 21.1 °F 7.0 °F 29.79 in WSW 6.0 mph 7.0 mph 54% 0.00 in 0 W/m2
06:28 21.1 °F 7.0 °F 29.79 in SW 5.0 mph 10.0 mph 54% 0.00 in 0 W/m2
06:34 21.1 °F 7.0 °F 29.79 in WNW 5.0 mph 5.0 mph 54% 0.00 in 0 W/m2
06:40 21.1 °F 7.0 °F 29.79 in WNW 4.0 mph 6.0 mph 54% 0.00 in 0 W/m2
06:46 21.0 °F 6.9 °F 29.79 in West 5.0 mph 6.0 mph 54% 0.00 in 0 W/m2
06:52 20.9 °F 6.4 °F 29.79 in West 5.0 mph 5.0 mph 53% 0.00 in 0 W/m2
06:58 20.8 °F 6.3 °F 29.79 in West 5.0 mph 5.0 mph 53% 0.00 in 0 W/m2
07:04 20.7 °F 6.2 °F 29.79 in South 5.0 mph 6.0 mph 53% 0.00 in 0 W/m2
07:10 20.6 °F 6.2 °F 29.79 in WNW 5.0 mph 5.0 mph 53% 0.00 in 0 W/m2
07:16 20.4 °F 6.0 °F 29.79 in WNW 4.0 mph 8.0 mph 53% 0.00 in 0 W/m2
07:22 20.3 °F 5.9 °F 29.79 in SW 3.0 mph 3.0 mph 53% 0.00 in 0 W/m2
07:28 20.3 °F 5.9 °F 29.80 in WSW 4.0 mph 10.0 mph 53% 0.00 in 0 W/m2
07:34 20.3 °F 5.9 °F 29.81 in West 4.0 mph 5.0 mph 53% 0.00 in 0 W/m2
07:40 20.2 °F 6.2 °F 29.81 in West 4.0 mph 4.0 mph 54% 0.00 in 5 W/m2
07:46 20.2 °F 6.2 °F 29.82 in SSW 4.0 mph 5.0 mph 54% 0.00 in 9 W/m2
07:52 20.2 °F 6.6 °F 29.82 in WSW 4.0 mph 4.0 mph 55% 0.00 in 12 W/m2
07:58 20.1 °F 6.1 °F 29.83 in West 4.0 mph 4.0 mph 54% 0.00 in 16 W/m2
08:04 20.2 °F 6.2 °F 29.83 in West 5.0 mph 13.0 mph 54% 0.00 in 19 W/m2
08:10 20.3 °F 6.3 °F 29.83 in WSW 6.0 mph 6.0 mph 54% 0.00 in 26 W/m2
08:16 20.4 °F 6.4 °F 29.84 in West 4.0 mph 6.0 mph 54% 0.00 in 25 W/m2
08:22 20.5 °F 6.9 °F 29.84 in West 3.0 mph 8.0 mph 55% 0.00 in 32 W/m2
08:28 20.5 °F 6.9 °F 29.84 in SW 4.0 mph 8.0 mph 55% 0.00 in 42 W/m2
08:34 20.5 °F 6.5 °F 29.84 in SW 5.0 mph 6.0 mph 54% 0.00 in 95 W/m2
08:40 21.1 °F 6.6 °F 29.84 in WSW 5.0 mph 5.0 mph 53% 0.00 in 207 W/m2
08:46 21.8 °F 7.3 °F 29.85 in West 4.0 mph 5.0 mph 53% 0.00 in 199 W/m2
08:52 21.6 °F 6.7 °F 29.85 in SSE 4.0 mph 9.0 mph 52% 0.00 in 216 W/m2
08:58 21.3 °F 6.8 °F 29.84 in West 5.0 mph 9.0 mph 53% 0.00 in 216 W/m2
09:04 21.4 °F 6.9 °F 29.85 in WSW 6.0 mph 10.0 mph 53% 0.00 in 218 W/m2
09:10 21.7 °F 7.2 °F 29.85 in WSW 5.0 mph 5.0 mph 53% 0.00 in 230 W/m2
09:16 21.9 °F 6.9 °F 29.85 in West 5.0 mph 6.0 mph 52% 0.00 in 227 W/m2
09:22 21.6 °F 6.7 °F 29.85 in SW 5.0 mph 9.0 mph 52% 0.00 in 113 W/m2
09:28 21.5 °F 6.6 °F 29.85 in WSW 5.0 mph 9.0 mph 52% 0.00 in 127 W/m2
09:34 21.7 °F 7.2 °F 29.86 in WNW 5.0 mph 9.0 mph 53% 0.00 in 169 W/m2
09:40 21.9 °F 6.9 °F 29.86 in SW 5.0 mph 5.0 mph 52% 0.00 in 178 W/m2
09:46 22.0 °F 7.5 °F 29.86 in West 6.0 mph 8.0 mph 53% 0.00 in 195 W/m2
09:58 22.4 °F 7.0 °F 29.86 in SW 4.0 mph 13.0 mph 51% 0.00 in 162 W/m2
10:04 22.0 °F 6.6 °F 29.86 in WNW 5.0 mph 9.0 mph 51% 0.00 in 151 W/m2
10:10 22.0 °F 7.5 °F 29.86 in WSW 5.0 mph 5.0 mph 53% 0.00 in 156 W/m2
10:16 22.3 °F 7.7 °F 29.86 in West 3.0 mph 5.0 mph 53% 0.00 in 167 W/m2
10:22 22.4 °F 7.8 °F 29.86 in SW 3.0 mph 3.0 mph 53% 0.00 in 209 W/m2
10:28 22.5 °F 7.9 °F 29.86 in West 4.0 mph 5.0 mph 53% 0.00 in 172 W/m2
10:34 22.3 °F 7.7 °F 29.87 in WSW 5.0 mph 6.0 mph 53% 0.00 in 186 W/m2
10:40 22.4 °F 7.4 °F 29.87 in West 5.0 mph 5.0 mph 52% 0.00 in 176 W/m2
10:46 22.5 °F 7.9 °F 29.88 in SW 6.0 mph 12.0 mph 53% 0.00 in 148 W/m2
10:52 22.5 °F 7.9 °F 29.88 in West 6.0 mph 6.0 mph 53% 0.00 in 142 W/m2
10:58 22.5 °F 8.3 °F 29.88 in West 5.0 mph 8.0 mph 54% 0.00 in 137 W/m2
11:04 22.4 °F 8.2 °F 29.88 in NW 6.0 mph 8.0 mph 54% 0.00 in 149 W/m2
11:10 22.5 °F 8.7 °F 29.89 in SW 6.0 mph 10.0 mph 55% 0.00 in 135 W/m2
11:16 22.5 °F 8.7 °F 29.89 in West 6.0 mph 10.0 mph 55% 0.00 in 123 W/m2
11:22 22.5 °F 8.3 °F 29.89 in WSW 6.0 mph 6.0 mph 54% 0.00 in 125 W/m2
11:28 22.8 °F 9.4 °F 29.88 in WSW 6.0 mph 6.0 mph 56% 0.00 in 178 W/m2
11:34 23.7 °F 9.5 °F 29.88 in West 5.0 mph 7.0 mph 54% 0.00 in 415 W/m2
11:40 23.6 °F 9.4 °F 29.88 in SW 5.0 mph 8.0 mph 54% 0.00 in 376 W/m2
11:46 23.6 °F 9.4 °F 29.87 in West 6.0 mph 12.0 mph 54% 0.00 in 281 W/m2
11:52 23.7 °F 9.5 °F 29.87 in West 7.0 mph 8.0 mph 54% 0.00 in 373 W/m2
11:58 23.3 °F 9.1 °F 29.87 in WSW 7.0 mph 9.0 mph 54% 0.00 in 207 W/m2
12:04 23.5 °F 9.3 °F 29.86 in West 7.0 mph 9.0 mph 54% 0.00 in 294 W/m2
12:10 24.0 °F 9.3 °F 29.86 in West 6.0 mph 13.0 mph 53% 0.00 in 369 W/m2
12:16 24.0 °F 9.3 °F 29.85 in SW 6.0 mph 13.0 mph 53% 0.00 in 271 W/m2
12:22 23.8 °F 9.6 °F 29.85 in SW 5.0 mph 8.0 mph 54% 0.00 in 244 W/m2
12:36 24.3 °F 10.4 °F 29.85 in SW 4.0 mph 5.0 mph 55% 0.00 in 330 W/m2
12:42 24.7 °F 10.4 °F 29.85 in West 4.0 mph 8.0 mph 54% 0.00 in 295 W/m2
12:48 25.0 °F 11.1 °F 29.85 in SW 3.0 mph 8.0 mph 55% 0.00 in 220 W/m2
12:56 24.4 °F 10.5 °F 29.84 in SW 5.0 mph 9.0 mph 55% 0.00 in 295 W/m2
13:04 24.9 °F 11.4 °F 29.85 in West 6.0 mph 6.0 mph 56% 0.00 in 292 W/m2
13:10 24.4 °F 10.9 °F 29.85 in SSW 5.0 mph 5.0 mph 56% 0.00 in 174 W/m2
13:16 24.3 °F 11.2 °F 29.85 in West 5.0 mph 5.0 mph 57% 0.00 in 142 W/m2
13:22 24.3 °F 11.6 °F 29.85 in SSW 4.0 mph 4.0 mph 58% 0.00 in 165 W/m2
13:28 24.3 °F 11.6 °F 29.85 in West 3.0 mph 4.0 mph 58% 0.00 in 142 W/m2
13:36 24.4 °F 12.1 °F 29.85 in WSW 4.0 mph 5.0 mph 59% 0.00 in 118 W/m2
13:42 24.3 °F 11.6 °F 29.85 in WNW 4.0 mph 4.0 mph 58% 0.00 in 142 W/m2
13:48 24.4 °F 12.1 °F 29.85 in SW 3.0 mph 4.0 mph 59% 0.00 in 118 W/m2
13:54 24.5 °F 12.2 °F 29.85 in WNW 4.0 mph 4.0 mph 59% 0.00 in 176 W/m2
14:00 24.5 °F 12.2 °F 29.84 in West 4.0 mph 4.0 mph 59% 0.00 in 144 W/m2
14:06 24.4 °F 12.1 °F 29.85 in WSW 4.0 mph 6.0 mph 59% 0.00 in 206 W/m2
14:12 24.5 °F 11.8 °F 29.85 in West 4.0 mph 10.0 mph 58% 0.00 in 146 W/m2
14:24 24.6 °F 11.9 °F 29.85 in SW 4.0 mph 7.0 mph 58% 0.00 in 116 W/m2
14:30 24.6 °F 11.1 °F 29.85 in WSW 4.0 mph 4.0 mph 56% 0.00 in 98 W/m2
14:36 24.5 °F 10.6 °F 29.85 in SSW 4.0 mph 6.0 mph 55% 0.00 in 72 W/m2
14:42 24.5 °F 11.4 °F 29.84 in WSW 3.0 mph 7.0 mph 57% 0.00 in 95 W/m2
14:48 24.6 °F 11.1 °F 29.84 in WSW 4.0 mph 7.0 mph 56% 0.00 in 81 W/m2
14:54 24.6 °F 11.5 °F 29.84 in WNW 4.0 mph 5.0 mph 57% 0.00 in 79 W/m2
15:00 24.5 °F 11.0 °F 29.84 in West 4.0 mph 4.0 mph 56% 0.00 in 74 W/m2
15:06 24.4 °F 11.3 °F 29.85 in WSW 4.0 mph 5.0 mph 57% 0.00 in 69 W/m2
15:12 24.2 °F 11.5 °F 29.85 in WNW 4.0 mph 5.0 mph 58% 0.00 in 62 W/m2
15:18 24.1 °F 11.4 °F 29.85 in West 4.0 mph 5.0 mph 58% 0.00 in 100 W/m2
15:24 24.3 °F 11.6 °F 29.85 in West 3.0 mph 4.0 mph 58% 0.00 in 49 W/m2
15:30 24.2 °F 11.1 °F 29.85 in West 3.0 mph 3.0 mph 57% 0.00 in 40 W/m2
15:36 24.1 °F 11.8 °F 29.85 in West 3.0 mph 4.0 mph 59% 0.00 in 33 W/m2
15:42 23.9 °F 12.0 °F 29.86 in NW 3.0 mph 7.0 mph 60% 0.00 in 37 W/m2
15:48 23.8 °F 12.7 °F 29.86 in West 3.0 mph 7.0 mph 62% 0.00 in 25 W/m2
15:54 23.6 °F 12.5 °F 29.86 in SW 3.0 mph 3.0 mph 62% 0.00 in 23 W/m2
16:00 23.5 °F 12.7 °F 29.86 in West 4.0 mph 5.0 mph 63% 0.00 in 19 W/m2
16:06 23.4 °F 13.4 °F 29.86 in West 3.0 mph 5.0 mph 65% 0.00 in 25 W/m2
16:12 23.3 °F 13.3 °F 29.86 in WSW 1.0 mph 4.0 mph 65% 0.00 in 12 W/m2
16:18 23.1 °F 13.4 °F 29.86 in WSW 3.0 mph 6.0 mph 66% 0.00 in 5 W/m2
16:24 23.0 °F 14.3 °F 29.85 in West 3.0 mph 4.0 mph 69% 0.00 in 7 W/m2
16:30 22.9 °F 14.6 °F 29.85 in SW 2.0 mph 2.0 mph 70% 0.00 in 5 W/m2
16:36 22.7 °F 14.7 °F 29.86 in WSW 2.0 mph 2.0 mph 71% 0.00 in 0 W/m2
16:42 22.6 °F 15.2 °F 29.85 in WSW 1.0 mph 3.0 mph 73% 0.00 in 0 W/m2
16:48 22.4 °F 15.4 °F 29.85 in West 2.0 mph 4.0 mph 74% 0.00 in 0 W/m2
16:54 22.3 °F 15.9 °F 29.85 in West 2.0 mph 2.0 mph 76% 0.00 in 0 W/m2
17:00 22.1 °F 16.0 °F 29.86 in West 1.0 mph 1.0 mph 77% 0.00 in 0 W/m2
17:06 22.0 °F 16.5 °F 29.85 in West 1.0 mph 2.0 mph 79% 0.00 in 0 W/m2
17:12 22.0 °F 16.8 °F 29.85 in Calm     80% 0.00 in 0 W/m2
17:18 21.9 °F 17.0 °F 29.86 in West 1.0 mph 3.0 mph 81% 0.00 in 0 W/m2
17:24 21.8 °F 17.2 °F 29.86 in West 1.0 mph 1.0 mph 82% 0.00 in 0 W/m2
17:30 21.8 °F 17.2 °F 29.85 in Calm     82% 0.00 in 0 W/m2
17:36 21.7 °F 17.3 °F 29.85 in Calm     83% 0.00 in 0 W/m2
17:42 21.8 °F 17.7 °F 29.85 in Calm   1.0 mph 84% 0.00 in 0 W/m2
17:48 21.7 °F 17.6 °F 29.85 in West 1.0 mph 1.0 mph 84% 0.00 in 0 W/m2
17:54 21.7 °F 17.9 °F 29.85 in West 1.0 mph 1.0 mph 85% 0.00 in 0 W/m2
18:00 21.7 °F 17.6 °F 29.85 in West 1.0 mph 1.0 mph 84% 0.00 in 0 W/m2
18:06 21.6 °F 17.8 °F 29.85 in SW 1.0 mph 2.0 mph 85% 0.00 in 0 W/m2
18:12 21.5 °F 17.7 °F 29.85 in SW 1.0 mph 1.0 mph 85% 0.00 in 0 W/m2
18:18 21.5 °F 17.7 °F 29.85 in SW 1.0 mph 2.0 mph 85% 0.00 in 0 W/m2
18:24 21.5 °F 18.0 °F 29.85 in SW 1.0 mph 1.0 mph 86% 0.00 in 0 W/m2
18:30 21.5 °F 18.0 °F 29.86 in Calm     86% 0.00 in 0 W/m2
18:36 21.5 °F 18.0 °F 29.86 in SW 1.0 mph 1.0 mph 86% 0.00 in 0 W/m2
18:42 21.5 °F 18.0 °F 29.86 in Calm     86% 0.00 in 0 W/m2
18:48 21.5 °F 18.0 °F 29.86 in Calm     86% 0.00 in 0 W/m2
18:54 21.5 °F 18.0 °F 29.86 in Calm   1.0 mph 86% 0.00 in 0 W/m2
19:00 21.5 °F 18.0 °F 29.86 in SW 1.0 mph 1.0 mph 86% 0.00 in 0 W/m2
19:06 21.6 °F 18.1 °F 29.86 in Calm   1.0 mph 86% 0.00 in 0 W/m2
19:12 21.6 °F 18.1 °F 29.86 in Calm     86% 0.00 in 0 W/m2
19:18 21.6 °F 18.1 °F 29.87 in Calm     86% 0.00 in 0 W/m2
19:24 21.6 °F 18.1 °F 29.88 in Calm     86% 0.00 in 0 W/m2
19:30 21.7 °F 18.2 °F 29.88 in Calm     86% 0.00 in 0 W/m2
19:36 21.7 °F 18.4 °F 29.88 in Calm   1.0 mph 87% 0.00 in 0 W/m2
19:42 21.7 °F 18.4 °F 29.88 in Calm     87% 0.00 in 0 W/m2
19:48 21.5 °F 18.2 °F 29.87 in Calm     87% 0.00 in 0 W/m2
19:54 21.4 °F 18.1 °F 29.88 in Calm     87% 0.00 in 0 W/m2
20:00 21.4 °F 18.4 °F 29.88 in Calm     88% 0.00 in 0 W/m2
20:06 21.4 °F 18.1 °F 29.88 in Calm     87% 0.00 in 0 W/m2
20:12 21.4 °F 18.4 °F 29.88 in Calm     88% 0.00 in 0 W/m2
20:18 21.4 °F 18.4 °F 29.88 in Calm   1.0 mph 88% 0.00 in 0 W/m2
20:24 21.4 °F 18.4 °F 29.88 in Calm     88% 0.00 in 0 W/m2
20:30 21.4 °F 18.4 °F 29.88 in Calm     88% 0.00 in 0 W/m2
20:36 21.3 °F 18.3 °F 29.88 in Calm     88% 0.00 in 0 W/m2
20:42 21.3 °F 18.3 °F 29.88 in Calm     88% 0.00 in 0 W/m2
20:48 21.3 °F 18.3 °F 29.88 in Calm     88% 0.00 in 0 W/m2
20:54 21.4 °F 18.4 °F 29.88 in Calm     88% 0.00 in 0 W/m2
21:00 21.4 °F 18.4 °F 29.88 in Calm     88% 0.00 in 0 W/m2
21:06 21.3 °F 18.3 °F 29.88 in SW 1.0 mph 1.0 mph 88% 0.00 in 0 W/m2
21:12 21.3 °F 18.3 °F 29.88 in SW 1.0 mph 1.0 mph 88% 0.00 in 0 W/m2
21:18 21.2 °F 18.2 °F 29.89 in Calm   1.0 mph 88% 0.00 in 0 W/m2
21:24 21.2 °F 18.2 °F 29.89 in WSW 1.0 mph 3.0 mph 88% 0.00 in 0 W/m2
21:30 21.3 °F 18.0 °F 29.88 in West 1.0 mph 1.0 mph 87% 0.00 in 0 W/m2
21:36 21.3 °F 18.0 °F 29.88 in West 1.0 mph 1.0 mph 87% 0.00 in 0 W/m2
21:42 21.3 °F 18.0 °F 29.88 in Calm   1.0 mph 87% 0.00 in 0 W/m2
21:48 21.3 °F 18.0 °F 29.88 in West 1.0 mph 2.0 mph 87% 0.00 in 0 W/m2
21:54 21.3 °F 18.0 °F 29.88 in Calm   1.0 mph 87% 0.00 in 0 W/m2
22:00 21.3 °F 18.0 °F 29.89 in Calm     87% 0.00 in 0 W/m2
22:06 21.3 °F 18.3 °F 29.89 in Calm     88% 0.00 in 0 W/m2
22:12 21.3 °F 18.3 °F 29.88 in Calm     88% 0.00 in 0 W/m2
22:18 21.2 °F 17.9 °F 29.89 in Calm   2.0 mph 87% 0.00 in 0 W/m2
22:24 21.2 °F 17.9 °F 29.89 in West 1.0 mph 3.0 mph 87% 0.00 in 0 W/m2
22:30 21.1 °F 17.6 °F 29.89 in WSW 1.0 mph 1.0 mph 86% 0.00 in 0 W/m2
22:36 21.1 °F 17.6 °F 29.89 in West 1.0 mph 3.0 mph 86% 0.00 in 0 W/m2
22:42 21.0 °F 17.2 °F 29.89 in WNW 1.0 mph 3.0 mph 85% 0.00 in 0 W/m2
22:48 20.9 °F 16.8 °F 29.89 in WNW 1.0 mph 3.0 mph 84% 0.00 in 0 W/m2
22:54 20.8 °F 16.7 °F 29.90 in NW 2.0 mph 3.0 mph 84% 0.00 in 0 W/m2
23:00 20.6 °F 16.3 °F 29.91 in NW 1.0 mph 1.0 mph 83% 0.00 in 0 W/m2
23:06 20.5 °F 16.4 °F 29.91 in NW 1.0 mph 1.0 mph 84% 0.00 in 0 W/m2
23:12 20.3 °F 16.2 °F 29.91 in NW 1.0 mph 1.0 mph 84% 0.00 in 0 W/m2
23:18 20.0 °F 15.9 °F 29.90 in Calm   1.0 mph 84% 0.00 in 0 W/m2
23:24 20.0 °F 16.2 °F 29.91 in Calm     85% 0.00 in 0 W/m2
23:30 20.0 °F 16.2 °F 29.90 in NW 1.0 mph 1.0 mph 85% 0.00 in 0 W/m2
23:36 19.9 °F 16.1 °F 29.90 in Calm   1.0 mph 85% 0.00 in 0 W/m2
23:42 19.9 °F 16.1 °F 29.91 in Calm     85% 0.00 in 0 W/m2
23:48 19.8 °F 16.0 °F 29.91 in NW 1.0 mph 1.0 mph 85% 0.00 in 0 W/m2
23:54 19.8 °F 15.7 °F 29.91 in NW 1.0 mph 2.0 mph 84% 0.00 in 0 W/m2
Country Meadow, Clay, NY, USA
Compliments of Weather Underground - 2 mb